[[{"header":{"parameterUnit":"m.s-1","parameterCategory":1,"la1":30.2991,"la2":30.254,"lo1":-89.0895,"lo2":-89.0444,"dy":0.0017,"dx":0.0017,"nx":28,"ny":28,"refTime":"2024-03-30T21:00:00:Z","depth":0,"parameterNumber":2,"parameterNumberName":"U-component_of_WINDS"},"data":[0,0,0,0,0,0,0,0,0,0,0,0,0,0,0,0,0,0,0,0,0,0,0,0,0,0,0,0,0,0,0,0,0,0,0,0,0,0,0,0,0,0,0,0,0,0,0,0,0,0,0,0,0,0,0,0,0,0,-0.9034,-0.9034,0,-0.9049,-0.9049,-0.9049,-0.9045,-0.9044,-0.9044,-0.9044,-0.9059,-0.906,-0.9061,0,0,0,0,0,0,0,0,0,0,0,0,0,-0.9002,-0.9003,-0.9034,-0.9034,-0.9034,-0.9049,-0.9049,-0.9049,-0.9045,-0.9044,-0.9044,-0.9044,-0.9059,-0.906,-0.9061,0,0,0,0,0,0,0,0,0,0,0,0,0,-0.9016,-0.9003,-0.9034,-0.9034,-0.9034,-0.9049,-0.9049,-0.9049,-0.9045,-0.9044,-0.9044,-0.9043,-0.9059,-0.906,-0.9061,-0.9077,0,0,-0.9064,-0.9065,0,0,0,0,0,0,0,0,-0.9016,-0.9018,-0.9034,-0.9034,-0.9034,-0.9044,-0.9043,-0.9058,-0.9045,-0.9041,-0.9044,-0.9043,-0.9055,-0.9056,-0.906,-0.9077,-0.9078,-0.9064,-0.9065,-0.9065,-0.9066,0,0,0,0,0,0,0,-0.9015,-0.9017,-0.904,-0.9034,-0.9034,-0.9033,-0.9035,-0.9046,-0.905,-0.9041,-0.9041,-0.9042,-0.9055,-0.9059,-0.906,-0.9078,-0.9064,-0.9065,-0.9066,-0.9066,-0.9109,-0.911,0,0,0,0,0,0,-0.9013,-0.9016,-0.9039,-0.904,-0.9023,-0.9034,-0.9036,-0.9041,-0.905,-0.9051,-0.9043,-0.9042,-0.9057,-0.9059,-0.9061,-0.9079,-0.9065,-0.9066,-0.9067,-0.9109,-0.9109,-0.911,0,0,0,0,0,0,-0.9013,-0.9016,-0.9039,-0.9028,-0.9031,-0.9035,-0.9042,-0.9042,-0.9046,-0.9051,-0.9052,-0.9046,-0.9057,-0.9059,-0.9073,-0.908,-0.9067,-0.9068,-0.9108,-0.9109,-0.911,-0.9116,0,0,0,0,0,0,-0.9012,-0.9015,-0.9021,-0.9028,-0.9031,-0.905,-0.9042,-0.9043,-0.9048,-0.9047,-0.9055,-0.9056,-0.9057,-0.9071,-0.9074,-0.9081,-0.9069,-0.9107,-0.9108,-0.9109,-0.9116,-0.9117,-0.9119,0,0,0,0,0,-0.9011,-0.9023,-0.9021,-0.9024,-0.9039,-0.905,-0.9052,-0.9053,-0.9048,-0.9054,-0.9058,-0.9055,-0.9079,-0.9073,-0.9075,-0.9083,-0.9107,-0.9108,-0.9109,-0.9115,-0.9117,-0.9119,0,0,0,0,0,0,-0.9017,-0.9024,-0.9022,-0.9037,-0.9043,-0.905,-0.9057,-0.9056,-0.9063,-0.9062,-0.9064,-0.9065,-0.9079,-0.9083,-0.9075,-0.9099,-0.9092,-0.9094,-0.9095,-0.9098,-0.9099,-0.9098,-0.907,0,0,0,0,0,-0.902,-0.9028,-0.9034,-0.9046,-0.9049,-0.9053,-0.9058,-0.9058,-0.9065,-0.9067,-0.9072,-0.9078,-0.9087,-0.9093,-0.9101,-0.9117,-0.9118,-0.9123,-0.9125,-0.9126,-0.9127,-0.9135,-0.9138,-0.9114,-0.9114,-0.9114,0,0,-0.9026,-0.9031,-0.9036,-0.9048,-0.9052,-0.9061,-0.9055,-0.9065,-0.9071,-0.9069,-0.9081,-0.9085,-0.9092,-0.9107,-0.9113,-0.911,-0.9135,-0.9128,-0.9129,-0.9129,-0.9137,-0.9139,-0.9141,-0.9114,-0.9114,-0.9114,0,0,-0.9041,-0.9046,-0.9056,-0.9061,-0.9069,-0.9071,-0.9074,-0.908,-0.9083,-0.9095,-0.9093,-0.9102,-0.9117,-0.9122,-0.9127,-0.9144,-0.9142,-0.9147,-0.9155,-0.9163,-0.9165,-0.9167,-0.9172,-0.9174,-0.9149,-0.9149,-0.9149,0,-0.9048,-0.9061,-0.9062,-0.9072,-0.9077,-0.9075,-0.9086,-0.909,-0.91,-0.9104,-0.91,-0.9119,-0.9124,-0.9139,-0.9144,-0.9148,-0.9151,-0.9146,-0.9165,-0.9166,-0.9168,-0.9173,-0.9175,-0.9149,-0.9149,-0.9149,-0.9149,0,-0.9068,-0.9078,-0.9085,-0.9094,-0.91,-0.911,-0.9113,-0.9119,-0.9119,-0.9122,-0.9135,-0.9141,-0.915,-0.9154,-0.9154,-0.9169,-0.9167,-0.9164,-0.9158,-0.9171,-0.9176,-0.9178,-0.915,-0.915,-0.915,-0.9149,0,0,-0.9087,-0.9097,-0.9099,-0.9103,-0.9112,-0.9119,-0.9129,-0.9138,-0.9143,-0.915,-0.9158,-0.9171,-0.9169,-0.9174,-0.9175,-0.9182,-0.9195,-0.9178,-0.9178,-0.918,-0.9211,-0.9212,-0.9215,-0.9194,-0.9194,-0.9195,-0.921,0,-0.9103,-0.912,-0.9121,-0.9137,-0.9145,-0.9144,-0.9153,-0.9159,-0.9162,-0.9169,-0.9173,-0.9182,-0.9178,-0.9181,-0.9188,-0.9192,-0.9201,-0.9191,-0.9201,-0.9202,-0.9198,-0.9217,-0.9219,-0.9233,-0.9212,-0.9212,-0.9213,0,-0.9123,-0.913,-0.9146,-0.9153,-0.9156,-0.9164,-0.9172,-0.918,-0.9187,-0.9188,-0.9194,-0.9194,-0.9205,-0.9199,-0.9213,-0.9206,-0.9211,-0.9214,-0.9214,-0.9214,-0.9207,-0.9217,-0.9238,-0.9239,-0.9216,-0.9216,-0.9216,0,-0.9133,-0.9147,-0.9159,-0.9162,-0.9171,-0.9176,-0.918,-0.9186,-0.9192,-0.9199,-0.9202,-0.9211,-0.9216,-0.9223,-0.9225,-0.9221,-0.924,-0.9234,-0.9241,-0.9241,-0.9244,-0.9243,-0.9264,-0.9249,-0.9249,-0.9249,-0.9249,0,-0.915,-0.9159,-0.9163,-0.917,-0.9181,-0.9183,-0.9194,-0.9198,-0.9204,-0.9211,-0.9212,-0.9219,-0.9222,-0.923,-0.9232,-0.9244,-0.9246,-0.9247,-0.9248,-0.9247,-0.9246,-0.9249,-0.9248,-0.9249,-0.9249,-0.9249,-0.9249,0,-0.9163,-0.9166,-0.9178,-0.9185,-0.9187,-0.9195,-0.9201,-0.9208,-0.9211,-0.9221,-0.9223,-0.9228,-0.9237,-0.9241,-0.9252,-0.9254,-0.9267,-0.9267,-0.9264,-0.9264,-0.927,-0.9269,-0.9293,-0.9296,-0.9279,-0.9279,-0.9279,0,-0.9173,-0.918,-0.9188,-0.9193,-0.9197,-0.9205,-0.921,-0.9213,-0.9218,-0.9227,-0.9232,-0.9242,-0.9249,-0.9264,-0.9269,-0.9277,-0.9277,-0.9285,-0.9278,-0.9277,-0.9276,-0.9275,-0.9276,-0.9286,-0.9286,-0.9286,-0.9286,0,-0.9189,-0.919,-0.9198,-0.9206,-0.9212,-0.9219,-0.9225,-0.9229,-0.9233,-0.9239,-0.9248,-0.9254,-0.9266,-0.9275,-0.9284,-0.9288,-0.9287,-0.9288,-0.929,-0.9289,-0.9286,-0.9287,-0.9266,-0.9287,-0.9287,-0.9287,-0.9287,-0.9287,-0.92,-0.9207,-0.9213,-0.9221,-0.9226,-0.9232,-0.9239,-0.9243,-0.925,-0.926,-0.9261,-0.9271,-0.9278,-0.929,-0.9295,-0.9303,-0.93,-0.9303,-0.9304,-0.9305,-0.9305,-0.9286,-0.9304,-0.9304,-0.9304,-0.9304,-0.9304,0,-0.9216,-0.922,-0.9228,-0.9236,-0.9243,-0.9242,-0.9249,-0.9255,-0.9263,-0.927,-0.9277,-0.9288,-0.9296,-0.9302,-0.9311,-0.9316,-0.9316,-0.9318,-0.9318,-0.9318,-0.9306,-0.9303,-0.9318,-0.9318,-0.9318,-0.9318,-0.9318,-0.9318,-0.9225,-0.9235,-0.9237,-0.925,-0.9254,-0.9264,-0.9268,-0.9273,-0.9278,-0.929,-0.9297,-0.9301,-0.9307,-0.9317,-0.9325,-0.9326,-0.9329,-0.9331,-0.9333,-0.9321,-0.9319,-0.9318,-0.9315,-0.9332,-0.9332,-0.9344,-0.9344,-0.9344]},{"header":{"parameterUnit":"m.s-1","parameterCategory":1,"la1":30.2991,"la2":30.254,"lo1":-89.0895,"lo2":-89.0444,"dy":0.0017,"dx":0.0017,"nx":28,"ny":28,"refTime":"2024-03-30T21:00:00:Z","depth":0,"parameterNumber":3,"parameterNumberName":"V-component_of_WINDS"},"data":[0,0,0,0,0,0,0,0,0,0,0,0,0,0,0,0,0,0,0,0,0,0,0,0,0,0,0,0,0,0,0,0,0,0,0,0,0,0,0,0,0,0,0,0,0,0,0,0,0,0,0,0,0,0,0,0,0,0,3.3559,3.356,0,3.3641,3.3642,3.3643,3.3653,3.3653,3.3652,3.3651,3.3733,3.3735,3.3738,0,0,0,0,0,0,0,0,0,0,0,0,0,3.3408,3.341,3.3559,3.356,3.3561,3.3641,3.3642,3.3643,3.3653,3.3652,3.3652,3.3651,3.3732,3.3735,3.3739,0,0,0,0,0,0,0,0,0,0,0,0,0,3.348,3.3411,3.3558,3.3576,3.3578,3.3641,3.3642,3.3643,3.3654,3.3652,3.3651,3.365,3.373,3.3735,3.3739,3.3789,0,0,3.3752,3.3754,0,0,0,0,0,0,0,0,3.3476,3.3485,3.3572,3.3574,3.3577,3.3636,3.3619,3.3692,3.3654,3.3625,3.3651,3.365,3.3701,3.3708,3.3726,3.3793,3.3797,3.3753,3.3755,3.3757,3.3758,0,0,0,0,0,0,0,3.3471,3.3482,3.3591,3.3573,3.3576,3.3578,3.3587,3.3633,3.3668,3.3627,3.3628,3.3638,3.3702,3.3722,3.3728,3.3798,3.3753,3.3756,3.3759,3.3761,3.3912,3.3913,0,0,0,0,0,0,3.3463,3.3478,3.3588,3.3594,3.3523,3.3582,3.3592,3.3618,3.3668,3.3675,3.3639,3.3638,3.3715,3.3723,3.3731,3.3794,3.3757,3.3761,3.3764,3.3911,3.3912,3.3914,0,0,0,0,0,0,3.346,3.3473,3.3585,3.3536,3.355,3.3586,3.3615,3.362,3.364,3.3677,3.3683,3.3652,3.3714,3.3725,3.3775,3.3797,3.3763,3.3767,3.3909,3.3911,3.3913,3.3921,0,0,0,0,0,0,3.3455,3.3472,3.3492,3.3536,3.3553,3.3629,3.3616,3.3623,3.3647,3.3647,3.3691,3.3697,3.3714,3.3769,3.378,3.3803,3.3771,3.3907,3.391,3.3912,3.3919,3.3923,3.3927,0,0,0,0,0,3.345,3.349,3.3493,3.3506,3.3579,3.363,3.364,3.3659,3.3649,3.367,3.3693,3.3696,3.3793,3.3774,3.3786,3.3811,3.3906,3.3909,3.3912,3.3917,3.3922,3.3927,0,0,0,0,0,0,3.3446,3.3496,3.35,3.3555,3.3589,3.3632,3.3658,3.3664,3.37,3.3698,3.372,3.3729,3.3779,3.38,3.3778,3.3863,3.3848,3.3854,3.3848,3.3853,3.3857,3.3851,3.3774,0,0,0,0,0,3.3451,3.349,3.3531,3.3576,3.3593,3.3623,3.3646,3.3658,3.3693,3.3707,3.3734,3.3767,3.3805,3.383,3.3867,3.3921,3.3931,3.3944,3.3948,3.3951,3.3956,3.3988,3.3994,3.3924,3.3924,3.3924,0,0,3.3463,3.3495,3.3518,3.3576,3.3603,3.3642,3.3634,3.3675,3.3704,3.3712,3.3763,3.3784,3.3822,3.3876,3.39,3.3894,3.3978,3.3955,3.3957,3.3961,3.3992,3.3998,3.4004,3.3926,3.3926,3.3926,0,0,3.3505,3.3533,3.3575,3.3602,3.3644,3.3664,3.3673,3.3716,3.3731,3.3782,3.3789,3.3823,3.3888,3.3916,3.3938,3.399,3.3994,3.4001,3.4022,3.4052,3.4058,3.4063,3.4083,3.409,3.4006,3.4006,3.4006,0,3.3515,3.3574,3.3595,3.3636,3.3662,3.3672,3.3714,3.3739,3.379,3.3807,3.3799,3.3882,3.3908,3.3969,3.3982,3.3999,3.4011,3.3997,3.4056,3.4061,3.4066,3.4085,3.4093,3.4007,3.4007,3.4007,3.4007,0,3.3584,3.3626,3.3654,3.3705,3.3733,3.3774,3.38,3.3826,3.3836,3.3856,3.3908,3.394,3.3984,3.3999,3.4008,3.4061,3.4056,3.4051,3.4038,3.4073,3.4092,3.4099,3.4008,3.4008,3.4008,3.4007,0,0,3.3627,3.3689,3.3699,3.3723,3.3769,3.3801,3.3843,3.3887,3.391,3.3944,3.398,3.4034,3.4031,3.4057,3.4069,3.4095,3.4136,3.4088,3.4089,3.4097,3.4198,3.4202,3.421,3.4138,3.414,3.4141,3.4195,0,3.3676,3.3752,3.3771,3.3836,3.3874,3.3884,3.392,3.3953,3.3972,3.4007,3.4028,3.4068,3.406,3.4076,3.4102,3.4126,3.4157,3.4122,3.4172,3.4174,3.4164,3.4219,3.4224,3.4273,3.4202,3.4203,3.4204,0,3.3743,3.3781,3.385,3.3892,3.3909,3.3942,3.3984,3.4017,3.4054,3.4066,3.4095,3.4105,3.4148,3.4131,3.4191,3.4166,3.4188,3.4202,3.4205,3.4212,3.4192,3.4229,3.4289,3.4298,3.4216,3.4215,3.4214,0,3.3769,3.3837,3.3887,3.3907,3.3957,3.398,3.4002,3.4037,3.4063,3.4099,3.4116,3.4157,3.4179,3.421,3.423,3.4216,3.4289,3.4273,3.4301,3.4301,3.4317,3.4316,3.4384,3.4328,3.4328,3.4328,3.4328,0,3.3823,3.3865,3.39,3.3931,3.3978,3.3999,3.4045,3.4067,3.4099,3.4134,3.4144,3.4176,3.42,3.4236,3.4251,3.4299,3.4309,3.432,3.4324,3.4321,3.432,3.4336,3.4334,3.433,3.433,3.4329,3.4329,0,3.3861,3.3886,3.3942,3.3985,3.3997,3.403,3.4067,3.4097,3.4117,3.4161,3.4173,3.4204,3.4246,3.4269,3.4322,3.4332,3.4387,3.4388,3.4375,3.4377,3.4404,3.4402,3.4486,3.4499,3.4433,3.4434,3.4434,0,3.3894,3.3927,3.3974,3.3999,3.4022,3.4061,3.4088,3.411,3.4137,3.4181,3.4206,3.4249,3.4285,3.4353,3.438,3.442,3.4423,3.445,3.4429,3.4425,3.4426,3.4424,3.4428,3.4454,3.4454,3.4455,3.4455,0,3.3951,3.3962,3.4001,3.4044,3.4076,3.411,3.4144,3.4164,3.4191,3.422,3.4265,3.4293,3.4347,3.439,3.4433,3.4455,3.446,3.4461,3.447,3.4468,3.446,3.4466,3.4387,3.446,3.4459,3.4459,3.4459,3.4459,3.3989,3.4019,3.4058,3.41,3.4129,3.416,3.4192,3.4216,3.4253,3.43,3.431,3.4357,3.4393,3.4451,3.4474,3.451,3.4505,3.4518,3.4521,3.4524,3.4526,3.4452,3.4518,3.4518,3.4518,3.4518,3.4518,0,3.4048,3.4073,3.4112,3.4161,3.4194,3.4197,3.4234,3.4262,3.4304,3.4337,3.4373,3.4424,3.4466,3.4496,3.4538,3.4562,3.4565,3.4572,3.4572,3.4577,3.4528,3.4517,3.4569,3.4569,3.4569,3.4569,3.4569,3.4569,3.4083,3.4135,3.415,3.4216,3.424,3.4288,3.4309,3.4339,3.4366,3.4423,3.4458,3.4477,3.4509,3.4554,3.4593,3.46,3.4616,3.4624,3.4632,3.4586,3.458,3.4575,3.4565,3.4626,3.4626,3.4678,3.4678,3.4679]}]]